Weather History for Hazen, ND

Change the Weather History Date:

Thursday, February 13, 2014

  Actual Average (KN60) Record (KN60)
Temperature  
Mean Temperature 16 °F -  
Max Temperature 33 °F 24 °F 45 °F (2006)
Min Temperature 0 °F 6 °F -20 °F (2007)
Degree Days  
Heating Degree Days 48    
Moisture  
Dew Point 0 °F    
Average Humidity 71    
Maximum Humidity 80    
Minimum Humidity 57    
Precipitation  
Precipitation 0.50 in - - ()
Sea Level Pressure  
Sea Level Pressure 29.73 in    
Wind  
Wind Speed 15 mph (NNE)    
Max Wind Speed 33 mph    
Max Gust Speed 46 mph    
Visibility 9 miles    
Events Snow    
Averages and records for this station are not official NWS values.
T = Trace of Precipitation, MM = Missing Value Source: NWS Daily Summary

Daily Weather History Graph

Daily Weather History Graph

Search for Another Location

Airport:

Trip Planner

Search our weather history database for the weather conditions in past years. The results will help you decide how hot, cold, wet, or windy it might be!

Date:

Astronomy

Feb. 13, 2014 Rise Set
Actual Time 7:54 AM CST 6:07 PM CST
Civil Twilight 7:22 AM CST 6:38 PM CST
Nautical Twilight 6:46 AM CST 7:14 PM CST
Astronomical Twilight 6:11 AM CST 7:50 PM CST
Moon 5:17 PM CST (2/13) 6:49 AM CST (2/13)
Length of Visible Light 11h 16m
Length of Day
10h 12m
Waxing Gibbous, 99% of the Moon is Illuminated
Feb 13
Waxing Gibbous
Feb 14
Full
Feb 22
Last Quarter
Mar 1
New
Mar 8
First Quarter

Hourly Weather History & Observations

Time (CST) Temp. Windchill Dew Point Humidity Pressure Visibility Wind Dir Wind Speed Gust Speed Precip Events Conditions
12:15 AM 33.8 °F 20.5 °F 26.6 °F 75% 29.34 in 10.0 mi NW 27.6 mph 38.0 mph N/A   Overcast
12:35 AM 32.0 °F 17.9 °F 24.8 °F 75% 29.36 in 10.0 mi NW 28.8 mph 46.0 mph N/A   Overcast
12:55 AM 32.0 °F 18.6 °F 24.8 °F 75% 29.40 in 10.0 mi NW 25.3 mph 42.6 mph N/A   Overcast
1:15 AM 28.4 °F 14.4 °F 23.0 °F 80% 29.42 in 10.0 mi NW 23.0 mph 35.7 mph N/A   Overcast
1:35 AM 26.6 °F 10.3 °F 19.4 °F 74% 29.44 in 10.0 mi NW 29.9 mph 39.1 mph N/A   Overcast
1:55 AM 24.8 °F 8.1 °F 15.8 °F 69% 29.48 in 10.0 mi NW 28.8 mph 41.4 mph N/A   Overcast
2:15 AM 21.2 °F 3.9 °F 14.0 °F 74% 29.51 in 10.0 mi NW 26.5 mph 38.0 mph N/A   Overcast
2:35 AM 19.4 °F -0.3 °F 10.4 °F 68% 29.55 in 10.0 mi NNW 33.4 mph 43.7 mph N/A Snow Light Snow
2:55 AM 17.6 °F 0.9 °F 10.4 °F 73% 29.58 in 10.0 mi NW 20.7 mph 35.7 mph N/A Snow Light Snow
3:15 AM 15.8 °F -1.1 °F 8.6 °F 73% 29.60 in 10.0 mi NW 19.6 mph 29.9 mph N/A   Mostly Cloudy
3:35 AM 14.0 °F 3.9 °F 6.8 °F 73% 29.64 in 2.0 mi NNW 6.9 mph - 0.08 in Snow Light Snow
3:55 AM 10.4 °F -6.0 °F 5.0 °F 79% 29.65 in 3.0 mi NNW 15.0 mph 20.7 mph 0.17 in Snow Light Snow
4:15 AM 8.6 °F -9.5 °F 1.4 °F 73% 29.67 in 9.0 mi NW 17.3 mph - 0.01 in Snow Light Snow
4:35 AM 5.0 °F -12.3 °F -0.4 °F 78% 29.71 in 10.0 mi NNW 13.8 mph 20.7 mph 0.01 in   Scattered Clouds
4:55 AM 3.2 °F -13.9 °F -4.0 °F 72% 29.73 in 10.0 mi NNW 12.7 mph - 0.01 in   Mostly Cloudy
5:15 AM 1.4 °F -15.3 °F -4.0 °F 78% 29.75 in 10.0 mi NNW 11.5 mph 17.3 mph N/A   Mostly Cloudy
5:35 AM 1.4 °F -16.9 °F -4.0 °F 78% 29.77 in 10.0 mi NW 13.8 mph - N/A   Partly Cloudy
5:55 AM 1.4 °F -15.3 °F -5.8 °F 72% 29.79 in 10.0 mi North 11.5 mph - N/A   Clear
6:15 AM -0.4 °F -13.4 °F -7.6 °F 72% 29.80 in 10.0 mi NNW 6.9 mph - N/A   Clear
6:35 AM -0.4 °F -19.9 °F -7.6 °F 72% 29.78 in 10.0 mi NNW 15.0 mph 18.4 mph N/A   Scattered Clouds
6:55 AM -0.4 °F -19.2 °F -7.6 °F 72% 29.79 in 10.0 mi NNW 13.8 mph - N/A   Partly Cloudy
7:15 AM -0.4 °F -12.0 °F -9.4 °F 66% 29.81 in 10.0 mi WNW 5.8 mph - N/A   Clear
7:35 AM -0.4 °F -19.9 °F -9.4 °F 66% 29.81 in 10.0 mi NNW 15.0 mph - N/A   Clear
7:55 AM -0.4 °F -13.4 °F -9.4 °F 66% 29.82 in 10.0 mi NNW 6.9 mph - N/A   Clear
8:15 AM -0.4 °F -16.7 °F -9.4 °F 66% 29.80 in 10.0 mi NNW 10.4 mph - N/A   Clear
8:35 AM -0.4 °F -17.6 °F -9.4 °F 66% 29.81 in 10.0 mi NNW 11.5 mph - N/A   Clear
8:55 AM -0.4 °F -15.7 °F -9.4 °F 66% 29.83 in 10.0 mi NW 9.2 mph - N/A   Clear
9:15 AM -0.4 °F -15.7 °F -9.4 °F 66% 29.83 in 10.0 mi NNW 9.2 mph - N/A   Clear
9:35 AM 1.4 °F -12.5 °F -7.6 °F 66% 29.84 in 10.0 mi NNW 8.1 mph - N/A   Clear
9:55 AM 1.4 °F -9.9 °F -7.6 °F 66% 29.84 in 10.0 mi NNW 5.8 mph - N/A   Clear
10:15 AM 1.4 °F -12.5 °F -5.8 °F 72% 29.82 in 10.0 mi North 8.1 mph - N/A   Clear
10:35 AM 1.4 °F -14.5 °F -5.8 °F 72% 29.82 in 10.0 mi North 10.4 mph - N/A   Clear
10:55 AM 3.2 °F -11.3 °F -4.0 °F 72% 29.81 in 10.0 mi North 9.2 mph - N/A   Partly Cloudy
11:15 AM 5.0 °F -8.1 °F -4.0 °F 66% 29.81 in 10.0 mi North 8.1 mph - N/A   Mostly Cloudy
11:35 AM 5.0 °F -6.9 °F -4.0 °F 66% 29.82 in 10.0 mi NW 6.9 mph - N/A   Mostly Cloudy
11:55 AM 6.8 °F -3.5 °F -4.0 °F 61% 29.81 in 10.0 mi NW 5.8 mph - N/A   Scattered Clouds
12:15 PM 5.0 °F -5.6 °F -4.0 °F 66% 29.80 in 10.0 mi North 5.8 mph - N/A   Partly Cloudy
12:35 PM 6.8 °F -2.0 °F -4.0 °F 61% 29.80 in 10.0 mi NE 4.6 mph - N/A   Clear
12:55 PM 8.6 °F 0.1 °F -4.0 °F 57% 29.79 in 10.0 mi NE 4.6 mph - N/A   Clear
1:35 PM 6.8 °F -0.1 °F -4.0 °F 61% 29.77 in 10.0 mi ENE 3.5 mph - N/A   Scattered Clouds
1:55 PM 6.8 °F -2.0 °F -4.0 °F 61% 29.76 in 10.0 mi ENE 4.6 mph - N/A   Overcast
2:15 PM 6.8 °F -3.5 °F -2.2 °F 67% 29.76 in 10.0 mi East 5.8 mph - N/A   Mostly Cloudy
2:35 PM 6.8 °F -2.0 °F -2.2 °F 67% 29.75 in 10.0 mi East 4.6 mph - N/A   Clear
2:55 PM 6.8 °F -0.1 °F -2.2 °F 67% 29.75 in 10.0 mi East 3.5 mph - N/A   Partly Cloudy
3:15 PM 6.8 °F -2.0 °F -2.2 °F 67% 29.75 in 10.0 mi East 4.6 mph - N/A   Partly Cloudy
3:35 PM 6.8 °F -0.1 °F -2.2 °F 67% 29.74 in 10.0 mi East 3.5 mph - N/A   Partly Cloudy
3:55 PM 6.8 °F -2.0 °F -2.2 °F 67% 29.75 in 10.0 mi East 4.6 mph - N/A   Clear
4:15 PM 6.8 °F -3.5 °F -0.4 °F 72% 29.75 in 10.0 mi NNE 5.8 mph - N/A   Mostly Cloudy
4:35 PM 6.8 °F -5.9 °F -0.4 °F 72% 29.75 in 10.0 mi ENE 8.1 mph - N/A   Mostly Cloudy
4:55 PM 6.8 °F -7.8 °F -2.2 °F 67% 29.75 in 10.0 mi ENE 10.4 mph - N/A   Mostly Cloudy
5:15 PM 6.8 °F -8.6 °F -0.4 °F 72% 29.74 in 10.0 mi ENE 11.5 mph 16.1 mph N/A   Overcast
5:55 PM 6.8 °F -6.9 °F -0.4 °F 72% 29.74 in 10.0 mi East 9.2 mph - N/A   Overcast
6:15 PM 6.8 °F -5.9 °F -2.2 °F 67% 29.75 in 10.0 mi East 8.1 mph - N/A   Overcast
6:35 PM 6.8 °F -4.8 °F -0.4 °F 72% 29.77 in 10.0 mi ESE 6.9 mph - N/A   Overcast
6:55 PM 6.8 °F -5.9 °F -0.4 °F 72% 29.76 in 10.0 mi East 8.1 mph - N/A Snow Light Snow
7:15 PM 6.8 °F -0.1 °F -0.4 °F 72% 29.76 in 8.0 mi ESE 3.5 mph - N/A Snow Light Snow
7:35 PM 6.8 °F -4.8 °F -0.4 °F 72% 29.77 in 9.0 mi ESE 6.9 mph - N/A Snow Light Snow
7:55 PM 6.8 °F -4.8 °F -0.4 °F 72% 29.77 in 2.5 mi East 6.9 mph - 0.02 in Snow Light Snow
8:15 PM 6.8 °F -4.8 °F -0.4 °F 72% 29.76 in 3.0 mi East 6.9 mph - 0.01 in Snow Light Snow
8:35 PM 6.8 °F -0.1 °F -0.4 °F 72% 29.78 in 5.0 mi East 3.5 mph - 0.01 in Snow Light Snow
8:55 PM 6.8 °F -5.9 °F -0.4 °F 72% 29.77 in 10.0 mi East 8.1 mph - 0.01 in Snow Light Snow
9:15 PM 6.8 °F -5.9 °F -0.4 °F 72% 29.77 in 1.5 mi ENE 8.1 mph - 0.02 in Snow Light Snow
9:35 PM 5.0 °F -6.9 °F -0.4 °F 78% 29.78 in 3.0 mi ENE 6.9 mph - 0.06 in Snow Light Snow
9:55 PM 5.0 °F -6.9 °F -0.4 °F 78% 29.79 in 2.5 mi ENE 6.9 mph - 0.09 in Snow Light Snow
10:15 PM 5.0 °F -5.6 °F -0.4 °F 78% 29.79 in 1.5 mi ENE 5.8 mph - 0.03 in Snow Light Snow
10:35 PM 5.0 °F -6.9 °F -0.4 °F 78% 29.79 in 2.0 mi East 6.9 mph - 0.16 in Snow Light Snow
10:55 PM 6.8 °F -4.8 °F -0.4 °F 72% 29.80 in 8.0 mi East 6.9 mph - 0.17 in Snow Light Snow
11:15 PM 6.8 °F -5.9 °F -0.4 °F 72% 29.80 in 9.0 mi ENE 8.1 mph - N/A Snow Light Snow
11:35 PM 6.8 °F -5.9 °F -0.4 °F 72% 29.81 in 5.0 mi ENE 8.1 mph - N/A Snow Light Snow
11:55 PM 5.0 °F -5.6 °F -0.4 °F 78% 29.82 in 3.0 mi East 5.8 mph - 0.03 in Snow Light Snow